STARLINK-36567, 67552

Orbit data source: Space-Track

STARLINK-36567, 67552 is a payload satellite owned by SpaceX/Seattle (US) in SSO that was launched on Thu, 22 Jan 2026 UTC via an FALCON 9 launch vehicle from the Air Force Western Test Range (AFWTR). Payload-class satellites include a variety of spacecraft equipped with specific instruments for various scientific and technological missions. These include communications satellites like Starlink; space stations such as the ISS; scientific satellites like the Hubble; Earth observation satellites from companies like Planet Labs, Umbra, and HawkEye 360; GPS; miniature CubeSats for education and research; and military/defense satellites.

Loading next visibility...
Identifier
67552, 2026-014W
Orbit
SSO
Country
Flag of USUS
Related business
Manufacturer
SpaceX/Seattle
Mission
Operational Commercial Communications
Bus & Motor
STARLINK V2MO, Unknown motor
Mass
575 kg wet, ~530 kg dry
Launch date (UTC)
2026-01-22 (5 months ago)
Launch vehicle
FALCON 9
Launch site
Air Force Western Test Range (AFWTR)
Object type
Payload
Rocket body
Debris
Shape & HBR
Box + 2 Pan, 17.7 m
Radar Cross Section
36.964 m², Large (>1 m²)

Expand to show TLE details & history
Last TLE update: 10 hours ago

TLE from 10 hours ago
0 STARLINK-36567
1 67552U 26014W   26171.43911352  .00018143  00000-0  56282-3 0  9996
2 67552  97.2855  58.1644 0001493  89.8689 270.2725 15.33453262 24528
Epoch: 2026-06-20T10:32Z
TLE epoch observation values (Epoch: 2026-06-20T10:32:19.408Z)
Latitude
0.00002°
Longitude
-8.57019°
Altitude
468.626 km
Speed
7.632 km/s
True Right ascension
03h 52m 39s
True Declination
0° 00' 00"
Sunlit
Object was in daylight at epoch
Visualization orbit readout
Latitude
Unknown
Longitude
Unknown
Altitude
Unknown
Speed
Unknown
Apparent Right ascension
Unknown
Apparent Declination
Unknown
Sunlit
N/A
Visualization observer readout
Local Sidereal Time
07:24:05
Azimuth
Unknown
Elevation
Unknown
Doppler factor
Unknown
Orbital elements
Apogee altitude
463.483 km
Perigee altitude
461.44 km
Semi-major axis
6,840.598 km
Eccentricity
0.00015
Inclination
97.2855°
RAAN
58.1644°
Arg. of periapsis
89.8689°
True anomaly
270.25539°
Mean anomaly
270.2725°
Eccentric anomaly
270.26395°
Mean motion
3.83621 °/min
Orbital period
93.84 mins
BSTAR
0.00056282
Loading maneuver chart data...
Computing Atmospheric mass density...
Loading historical data...
Loading historical data...
Loading historical data...
Loading historical data...
Loading historical data...
Loading historical data...
Loading historical data...

Documentation

Showing up to 5 results
|